Regional Weather Roundup
Issued by NWS

Home | Current Version | Previous Version | Text Only | Print | Product List | Glossary Off
Versions: 1 2 3 4 5 6 7 8 9 10 11 12 13 14 15 16 17 18 19 20 21 22 23 24 25 26 27 28 29 30 31 32 33 34 35 36 37 38 39 40 41 42 43 44 45 46 47 48 49 50

000
ASUS43 KIND 220559
RWRIN

WEATHER ROUNDUP FOR INDIANA
NATIONAL WEATHER SERVICE INDIANAPOLIS IN
100 AM EST MON JAN 22 2018

NOTE: "FAIR" INDICATES FEW OR NO CLOUDS BELOW 12,000 FEET WITH NO
SIGNIFICANT WEATHER AND/OR OBSTRUCTIONS TO VISIBILITY.

* - STATION DOES NOT REPORT WEATHER SUCH AS PRECIPITATION OR FOG.

+ - STATION NOT QUALITY CONTROLLED BY THE NATIONAL WEATHER SERVICE.
    USE DATA WITH CAUTION...ESPECIALLY DEWPOINT AND RELATIVE
    HUMIDITY OBSERVATIONS.

INZ001>003-010>013-019-020-220700-
NORTHWEST INDIANA

CITY           SKY/WX    TMP DP  RH WIND       PRES   REMARKS
KNOX *+        CLOUDY    45  45 100 S9        29.87F VSB 1/2
MONTICELLO +   LGT RAIN  46  45  95 CALM      29.87F VSB 3/4
6HR MIN TEMP:  44; 6HR MAX TEMP:  47; 6HR PCP:  0.08;


$$

LMZ046-743>745-220700-
SOUTHERN LAKE MICHIGAN

STATION/POSITION TIME  TEMP    WIND        PRES    WAVE
                       AIR SEA DIR/SP/G            HT
                 (UTC) (F)     (DEG/KT/KT) (MB)    (FT)
BURNS HARBOR     0540   47     190/  8/ 11 1011.5F
MICHIGAN CITY    0530   46     150/  6/  7   N/A

$$

INZ004-005-014>016-021>024-220700-
NORTH CENTRAL INDIANA

CITY           SKY/WX    TMP DP  RH WIND       PRES   REMARKS
GOSHEN         CLOUDY    47  46  97 S8        29.90F FOG
6HR MIN TEMP:  43; 6HR MAX TEMP:  47;

PERU/GRISSOM   LGT RAIN  47  47 100 S9        29.88F VSB 1
6HR MIN TEMP:  46; 6HR MAX TEMP:  47; 6HR PCP:  0.03;

SOUTH BEND     CLOUDY    45  45 100 S10       29.88F
6HR MIN TEMP:  40; 6HR MAX TEMP:  46; 6HR PCP: TRACE;


$$

INZ006>009-017-018-025>027-220700-
NORTHEAST INDIANA

CITY           SKY/WX    TMP DP  RH WIND       PRES   REMARKS
FORT WAYNE     DRZL/FOG  46  46 100 SE6       29.93F VSB 1/8
6HR MIN TEMP:  45; 6HR MAX TEMP:  47; 6HR PCP:  0.01;

KENDALLVILLE + FOG       45  45 100 S6        29.92F VSB 1/2

$$

INZ028-029-035-036-043>045-051>053-220700-
WEST CENTRAL INDIANA

CITY           SKY/WX    TMP DP  RH WIND       PRES   REMARKS
LAFAYETTE      RAIN      49  49 100 SE6       29.86F FOG
6HR MIN TEMP:  47; 6HR MAX TEMP:  49; 6HR PCP:  0.16;

TERRE HAUTE    CLOUDY    50  47  89 S7        29.88F
6HR MIN TEMP:  46; 6HR MAX TEMP:  50;


$$

INZ030>032-037>040-046>048-054>057-064-065-220700-
CENTRAL INDIANA

CITY           SKY/WX    TMP DP  RH WIND       PRES   REMARKS
GREENWOOD *+   CLOUDY    49  48  97 S8        29.93F
6HR MIN TEMP:  49; 6HR MAX TEMP:  50;

INDIANAPOLIS   CLOUDY    48  48 100 SE8       29.91F FOG
6HR MIN TEMP:  48; 6HR MAX TEMP:  50; 6HR PCP:  0.01;

-EAGLE CREEK   CLOUDY    50  48  93 SE6       29.90F
6HR MIN TEMP:  49; 6HR MAX TEMP:  50; 6HR PCP:  0.01;

MT COMFORT *+  CLOUDY    48  48 100 S8        29.92F
SHELBYVILLE    LGT RAIN  51  47  86 S12       29.93F
6HR MIN TEMP:  47; 6HR MAX TEMP:  51; 6HR PCP: TRACE;


$$

INZ033-034-041-042-049-050-058-059-220700-
EAST CENTRAL INDIANA

CITY           SKY/WX    TMP DP  RH WIND       PRES   REMARKS
MUNCIE         CLOUDY    54  49  83 S12       29.92F
6HR MIN TEMP:  50; 6HR MAX TEMP:  54;

RICHMOND +     CLOUDY    45  45 100 SE10      29.98F FOG

$$

INZ060-061-067>069-081>083-085>088-220700-
SOUTHWEST INDIANA

CITY           SKY/WX    TMP DP  RH WIND       PRES   REMARKS
EVANSVILLE     CLOUDY    56  47  71 S10       29.91F
6HR MIN TEMP:  49; 6HR MAX TEMP:  56;

HUNTINGBURG +  CLOUDY    56  46  69 S10       29.93F
6HR MIN TEMP:  51; 6HR MAX TEMP:  57;


$$

INZ062-063-066-070>080-084-089>092-220700-
SOUTH CENTRAL AND SOUTHEAST INDIANA

CITY           SKY/WX    TMP DP  RH WIND       PRES   REMARKS
BLOOMINGTON    CLOUDY    52  48  86 S6        29.91F
6HR MIN TEMP:  50; 6HR MAX TEMP:  52; 6HR PCP: TRACE;

SEYMOUR +      CLOUDY    54  46  76 S7        29.95F

$$





USA.gov is the U.S. government's official web portal to all federal, state and local government web resources and services.